W9IF-4 Weather Reports


Display with metric or nautical units.
time (UTC)temp
F
wind
direction
speed
MPH
gust
MPH
rain 1hr
in
rain 24hr
in
rain mn
in
humidity
%
barometer
mb
20141123082835 58 98 7.0 0.0 0.00 0.00 0.00 1020.2
20141123082735 57 101 9.0 0.0 0.00 0.00 0.00 1020.2
20141123082635 58 117 8.0 0.0 0.00 0.00 0.00 1020.2
20141123082535 57 113 7.0 0.0 0.00 0.00 0.00 1020.2
20141123082435 58 110 8.0 0.0 0.00 0.00 0.00 1020.2
20141123082335 58 104 6.0 0.0 0.00 0.00 0.00 1020.1
20141123082235 57 113 7.0 0.0 0.00 0.00 0.00 1020.2
20141123082035 57 97 9.0 0.0 0.00 0.00 0.00 1020.2
20141123081935 57 104 6.0 0.0 0.00 0.00 0.00 1020.2
20141123081835 58 121 8.0 0.0 0.00 0.00 0.00 1020.2
20141123081735 58 110 7.0 0.0 0.00 0.00 0.00 1020.2
20141123081635 58 110 8.0 0.0 0.00 0.00 0.00 1020.3
20141123081535 57 110 7.0 0.0 0.00 0.00 0.00 1020.3
20141123081435 57 105 8.0 0.0 0.00 0.00 0.00 1020.4
20141123081335 58 122 8.0 0.0 0.00 0.00 0.00 1020.3
20141123081235 58 97 7.0 0.0 0.00 0.00 0.00 1020.4
20141123081135 58 104 8.0 0.0 0.00 0.00 0.00 1020.4
20141123081035 58 120 8.0 0.0 0.00 0.00 0.00 1020.4
20141123080935 58 107 7.0 0.0 0.00 0.00 0.00 1020.4
20141123080835 58 111 6.0 0.0 0.00 0.00 0.00 1020.4
20141123080735 57 105 8.0 0.0 0.00 0.00 0.00 1020.5
20141123080635 57 104 7.0 0.0 0.00 0.00 0.00 1020.5
20141123080535 57 104 8.0 0.0 0.00 0.00 0.00 1020.4
20141123080435 58 101 9.0 0.0 0.00 0.00 0.00 1020.4
20141123080335 57 105 8.0 0.0 0.00 0.00 0.00 1020.4
20141123080235 58 105 8.0 0.0 0.00 0.00 0.00 1020.5
20141123080135 58 100 7.0 0.0 0.00 0.00 0.00 1020.5
20141123080035 58 105 6.0 0.0 0.00 0.00 0.00 1020.5
20141123075936 58 101 7.0 0.0 0.00 0.00 0.00 1020.5
20141123075835 58 110 7.0 0.0 0.00 0.00 0.00 1020.5
20141123075735 58 105 7.0 0.0 0.00 0.00 0.00 1020.5
20141123075635 58 114 7.0 0.0 0.00 0.00 0.00 1020.5
20141123075535 58 107 8.0 0.0 0.00 0.00 0.00 1020.5
20141123075435 58 96 7.0 0.0 0.00 0.00 0.00 1020.4
20141123075335 58 115 6.0 0.0 0.00 0.00 0.00 1020.5
20141123075235 58 111 8.0 0.0 0.00 0.00 0.00 1020.5
20141123075135 58 103 7.0 0.0 0.00 0.00 0.00 1020.5
20141123075035 58 98 7.0 0.0 0.00 0.00 0.00 1020.5
20141123074935 57 104 7.0 0.0 0.00 0.00 0.00 1020.5
20141123074835 58 108 7.0 0.0 0.00 0.00 0.00 1020.5
20141123074735 58 105 7.0 0.0 0.00 0.00 0.00 1020.5
20141123074636 58 100 6.0 0.0 0.00 0.00 0.00 1020.6
20141123074435 58 118 6.0 0.0 0.00 0.00 0.00 1020.6
20141123074335 58 94 7.0 0.0 0.00 0.00 0.00 1020.6
20141123074235 58 111 7.0 0.0 0.00 0.00 0.00 1020.6
20141123074135 58 105 7.0 0.0 0.00 0.00 0.00 1020.6
20141123074035 57 110 6.0 0.0 0.00 0.00 0.00 1020.6
20141123073935 58 105 7.0 0.0 0.00 0.00 0.00 1020.6
20141123073835 58 101 7.0 0.0 0.00 0.00 0.00 1020.6
20141123073735 58 107 6.0 0.0 0.00 0.00 0.00 1020.6
20141123073635 58 107 7.0 0.0 0.00 0.00 0.00 1020.7
20141123073535 58 103 6.0 0.0 0.00 0.00 0.00 1020.7
20141123073435 58 100 6.0 0.0 0.00 0.00 0.00 1020.7
20141123073335 58 101 6.0 0.0 0.00 0.00 0.00 1020.7
20141123073235 58 101 6.0 0.0 0.00 0.00 0.00 1020.7
20141123073135 58 96 6.0 0.0 0.00 0.00 0.00 1020.7
20141123072935 58 93 7.0 0.0 0.00 0.00 0.00 1020.7
20141123072835 58 108 6.0 0.0 0.00 0.00 0.00 1020.7
20141123072735 58 110 5.0 0.0 0.00 0.00 0.00 1020.7
20141123072635 58 104 7.0 0.0 0.00 0.00 0.00 1020.8
20141123072535 57 103 7.0 0.0 0.00 0.00 0.00 1020.7
20141123072435 58 89 6.0 0.0 0.00 0.00 0.00 1020.8
20141123072335 58 101 6.0 0.0 0.00 0.00 0.00 1020.8
20141123072235 58 104 6.0 0.0 0.00 0.00 0.00 1020.8
20141123072035 58 104 5.0 0.0 0.00 0.00 0.00 1020.7
20141123071935 58 110 6.0 0.0 0.00 0.00 0.00 1020.7
20141123071835 58 117 5.0 0.0 0.00 0.00 0.00 1020.7
20141123071735 58 113 6.0 0.0 0.00 0.00 0.00 1020.7
20141123071635 58 108 6.0 0.0 0.00 0.00 0.00 1020.7
20141123071535 58 120 5.0 0.0 0.00 0.00 0.00 1020.7
20141123071435 58 83 6.0 0.0 0.00 0.00 0.00 1020.7
20141123071335 58 93 7.0 0.0 0.00 0.00 0.00 1020.7
20141123071235 58 107 6.0 0.0 0.00 0.00 0.00 1020.7
20141123071135 58 101 6.0 0.0 0.00 0.00 0.00 1020.7
20141123071035 58 97 6.0 0.0 0.00 0.00 0.00 1020.7
20141123070935 58 87 5.0 0.0 0.00 0.00 0.00 1020.6
20141123070835 58 103 5.0 0.0 0.00 0.00 0.00 1020.6
20141123070735 58 100 4.0 0.0 0.00 0.00 0.00 1020.6
20141123070635 58 124 3.0 0.0 0.00 0.00 0.00 1020.6
20141123070535 58 107 5.0 0.0 0.00 0.00 0.00 1020.6
20141123070435 58 104 3.0 0.0 0.00 0.00 0.00 1020.6
20141123070335 58 90 4.0 0.0 0.00 0.00 0.00 1020.6
20141123070235 59 100 0.0 0.0 0.00 0.00 0.00 1020.6
20141123070135 58 100 0.0 0.0 0.00 0.00 0.00 1020.6
20141123070035 58 100 0.0 0.0 0.00 0.00 0.00 1020.7
20141123065935 58 100 0.0 0.0 0.00 0.00 0.00 1020.6
20141123065835 58 100 0.0 0.0 0.00 0.00 0.00 1020.6
20141123065735 58 100 0.0 0.0 0.00 0.00 0.00 1020.7
20141123065535 59 110 5.0 0.0 0.00 0.00 0.00 1020.7
20141123065435 58 111 5.0 0.0 0.00 0.00 0.00 1020.7
20141123065335 59 105 5.0 0.0 0.00 0.00 0.00 1020.7
20141123065235 59 121 5.0 0.0 0.00 0.00 0.00 1020.7
20141123065035 59 113 6.0 0.0 0.00 0.00 0.00 1020.7
20141123064935 59 104 5.0 0.0 0.00 0.00 0.00 1020.6
20141123064836 59 105 5.0 0.0 0.00 0.00 0.00 1020.6
20141123064735 58 113 0.0 0.0 0.00 0.00 0.00 1020.7
20141123064535 59 113 0.0 0.0 0.00 0.00 0.00 1020.7
20141123064435 59 113 0.0 0.0 0.00 0.00 0.00 1020.7
20141123064235 59 111 5.0 0.0 0.00 0.00 0.00 1020.7
20141123064135 59 113 0.0 0.0 0.00 0.00 0.00 1020.7
20141123064035 59 113 0.0 0.0 0.00 0.00 0.00 1020.7
20141123063935 59 113 0.0 0.0 0.00 0.00 0.00 1020.7
20141123063835 59 113 0.0 0.0 0.00 0.00 0.00 1020.8
20141123063735 59 113 0.0 0.0 0.00 0.00 0.00 1020.8
20141123063635 59 113 0.0 0.0 0.00 0.00 0.00 1020.8
20141123063535 59 113 0.0 0.0 0.00 0.00 0.00 1020.8
20141123063435 59 113 4.0 0.0 0.00 0.00 0.00 1020.8
20141123063335 59 152 0.0 0.0 0.00 0.00 0.00 1020.8
20141123063235 59 115 3.0 0.0 0.00 0.00 0.00 1020.8
20141123063135 59 122 6.0 0.0 0.00 0.00 0.00 1020.8
20141123062935 59 121 4.0 0.0 0.00 0.00 0.00 1020.8
20141123062835 59 135 7.0 0.0 0.00 0.00 0.00 1020.9
20141123062735 59 132 7.0 0.0 0.00 0.00 0.00 1020.8
20141123062635 59 136 5.0 0.0 0.00 0.00 0.00 1020.8
20141123062435 59 145 7.0 0.0 0.00 0.00 0.00 1020.8
20141123062335 59 139 6.0 0.0 0.00 0.00 0.00 1020.8
20141123062235 59 138 7.0 0.0 0.00 0.00 0.00 1020.8
20141123062135 59 139 7.0 0.0 0.00 0.00 0.00 1020.8
20141123061935 59 131 6.0 0.0 0.00 0.00 0.00 1020.8
20141123061835 59 149 5.0 0.0 0.00 0.00 0.00 1020.9
20141123061735 59 141 6.0 0.0 0.00 0.00 0.00 1020.9
20141123061635 59 141 5.0 0.0 0.00 0.00 0.00 1021.0
20141123061535 58 148 5.0 0.0 0.00 0.00 0.00 1021.0
20141123061435 59 142 6.0 0.0 0.00 0.00 0.00 1021.0
20141123061335 59 143 0.0 0.0 0.00 0.00 0.00 1021.0
20141123061135 59 143 0.0 0.0 0.00 0.00 0.00 1021.0
20141123061035 58 142 5.0 0.0 0.00 0.00 0.00 1021.0
20141123060935 59 156 5.0 0.0 0.00 0.00 0.00 1021.0
20141123060835 58 156 5.0 0.0 0.00 0.00 0.00 1021.0
20141123060735 59 149 5.0 0.0 0.00 0.00 0.00 1020.9
20141123060635 59 149 5.0 0.0 0.00 0.00 0.00 1021.0
20141123060535 59 150 6.0 0.0 0.00 0.00 0.00 1020.9
20141123060435 59 138 4.0 0.0 0.00 0.00 0.00 1020.9
20141123060335 59 150 7.0 0.0 0.00 0.00 0.00 1020.9
20141123060235 59 152 7.0 0.0 0.00 0.00 0.00 1020.9
20141123060135 59 149 6.0 0.0 0.00 0.00 0.00 1021.0
20141123060035 59 156 5.0 0.0 0.00 0.00 0.00 1021.1
20141123055935 59 149 5.0 0.0 0.00 0.00 0.00 1021.1
20141123055835 59 145 5.0 0.0 0.00 0.00 0.00 1021.2
20141123055735 59 141 4.0 0.0 0.00 0.00 0.00 1021.2
20141123055635 59 150 5.0 0.0 0.00 0.00 0.00 1021.2
20141123055535 59 145 6.0 0.0 0.00 0.00 0.00 1021.1
20141123055435 59 134 4.0 0.0 0.00 0.00 0.00 1021.1
20141123055335 59 145 5.0 0.0 0.00 0.00 0.00 1021.1
20141123055235 59 152 5.0 0.0 0.00 0.00 0.00 1021.1
20141123055135 59 141 7.0 0.0 0.00 0.00 0.00 1021.1
20141123055036 59 138 6.0 0.0 0.00 0.00 0.00 1021.1
20141123054935 59 143 5.0 0.0 0.00 0.00 0.00 1021.0
20141123054835 59 142 0.0 0.0 0.00 0.00 0.00 1021.1
20141123054735 59 142 0.0 0.0 0.00 0.00 0.00 1021.1
20141123054635 59 142 0.0 0.0 0.00 0.00 0.00 1021.2
20141123054535 59 142 0.0 0.0 0.00 0.00 0.00 1021.2
20141123054435 59 142 0.0 0.0 0.00 0.00 0.00 1021.2
20141123054335 59 142 0.0 0.0 0.00 0.00 0.00 1021.1
20141123054235 59 142 0.0 0.0 0.00 0.00 0.00 1021.1
20141123054135 59 142 0.0 0.0 0.00 0.00 0.00 1021.0
20141123054035 59 142 0.0 0.0 0.00 0.00 0.00 1021.0
20141123053935 59 142 0.0 0.0 0.00 0.00 0.00 1021.0
20141123053835 59 142 0.0 0.0 0.00 0.00 0.00 1021.0
20141123053735 59 142 0.0 0.0 0.00 0.00 0.00 1020.9
20141123053635 59 142 0.0 0.0 0.00 0.00 0.00 1020.9
20141123053535 59 148 5.0 0.0 0.00 0.00 0.00 1020.9
20141123053435 59 156 5.0 0.0 0.00 0.00 0.00 1020.8
20141123053335 59 160 7.0 0.0 0.00 0.00 0.00 1020.8
20141123053235 59 150 5.0 0.0 0.00 0.00 0.00 1020.8
20141123053135 59 155 6.0 0.0 0.00 0.00 0.00 1020.8
20141123053035 59 153 6.0 0.0 0.00 0.00 0.00 1020.8
20141123052935 59 148 6.0 0.0 0.00 0.00 0.00 1020.7
20141123052835 59 146 7.0 0.0 0.00 0.00 0.00 1020.8
20141123052735 59 149 6.0 0.0 0.00 0.00 0.00 1020.7
20141123052535 59 132 5.0 0.0 0.00 0.00 0.00 1020.7
20141123052435 59 141 6.0 0.0 0.00 0.00 0.00 1020.7
20141123052335 59 138 6.0 0.0 0.00 0.00 0.00 1020.7
20141123052235 59 142 7.0 0.0 0.00 0.00 0.00 1020.7
20141123052135 59 135 4.0 0.0 0.00 0.00 0.00 1020.8
20141123052035 59 132 7.0 0.0 0.00 0.00 0.00 1020.8
20141123051935 60 131 6.0 0.0 0.00 0.00 0.00 1020.8
20141123051835 59 127 5.0 0.0 0.00 0.00 0.00 1020.7
20141123051735 59 122 4.0 0.0 0.00 0.00 0.00 1020.8
20141123051635 59 117 6.0 0.0 0.00 0.00 0.00 1020.7
20141123051535 59 117 6.0 0.0 0.00 0.00 0.00 1020.7
20141123051434 59 117 5.0 0.0 0.00 0.00 0.00 1020.7
20141123051335 59 124 5.0 0.0 0.00 0.00 0.00 1020.7
20141123051235 59 115 6.0 0.0 0.00 0.00 0.00 1020.7
20141123051135 60 100 0.0 0.0 0.00 0.00 0.00 1020.8
20141123050935 59 100 0.0 0.0 0.00 0.00 0.00 1020.7
20141123050836 60 100 0.0 0.0 0.00 0.00 0.00 1020.7
20141123050735 59 100 0.0 0.0 0.00 0.00 0.00 1020.7
20141123050634 60 100 0.0 0.0 0.00 0.00 0.00 1020.7
20141123050534 60 100 0.0 0.0 0.00 0.00 0.00 1020.7
20141123050435 60 100 0.0 0.0 0.00 0.00 0.00 1020.7
20141123050234 59 100 0.0 0.0 0.00 0.00 0.00 1020.7
20141123050134 60 96 3.0 0.0 0.00 0.00 0.00 1020.7
20141123050034 60 114 7.0 0.0 0.00 0.00 0.00 1020.7
20141123045935 60 101 4.0 0.0 0.00 0.00 0.00 1020.8
20141123045834 60 111 4.0 0.0 0.00 0.00 0.00 1020.8
20141123045735 59 118 5.0 0.0 0.00 0.00 0.00 1020.8
20141123045635 60 103 0.0 0.0 0.00 0.00 0.00 1020.8
20141123045534 60 103 0.0 0.0 0.00 0.00 0.00 1020.8
20141123045434 60 103 0.0 0.0 0.00 0.00 0.00 1020.7
20141123045334 59 103 0.0 0.0 0.00 0.00 0.00 1020.7
20141123045234 60 103 0.0 0.0 0.00 0.00 0.00 1020.7
20141123045136 59 103 0.0 0.0 0.00 0.00 0.00 1020.7
20141123045034 60 103 0.0 0.0 0.00 0.00 0.00 1020.7
20141123044935 60 103 0.0 0.0 0.00 0.00 0.00 1020.7
20141123044834 60 103 0.0 0.0 0.00 0.00 0.00 1020.7
20141123044734 59 103 0.0 0.0 0.00 0.00 0.00 1020.7
20141123044634 59 103 0.0 0.0 0.00 0.00 0.00 1020.7
20141123044534 60 103 0.0 0.0 0.00 0.00 0.00 1020.7
20141123044434 60 90 3.0 0.0 0.00 0.00 0.00 1020.7
20141123044335 60 105 3.0 0.0 0.00 0.00 0.00 1020.7
20141123044234 60 120 6.0 0.0 0.00 0.00 0.00 1020.6
20141123044134 60 120 5.0 0.0 0.00 0.00 0.00 1020.6
20141123044034 60 114 5.0 0.0 0.00 0.00 0.00 1020.6
20141123043935 60 124 5.0 0.0 0.00 0.00 0.00 1020.6
20141123043834 60 101 3.0 0.0 0.00 0.00 0.00 1020.6
20141123043734 60 114 4.0 0.0 0.00 0.00 0.00 1020.5
20141123043634 60 117 5.0 0.0 0.00 0.00 0.00 1020.5
20141123043534 60 118 5.0 0.0 0.00 0.00 0.00 1020.5
20141123043435 60 141 6.0 0.0 0.00 0.00 0.00 1020.4
20141123043334 60 135 5.0 0.0 0.00 0.00 0.00 1020.4
20141123043235 60 134 5.0 0.0 0.00 0.00 0.00 1020.4
20141123043134 60 136 7.0 0.0 0.00 0.00 0.00 1020.4
20141123043034 60 128 6.0 0.0 0.00 0.00 0.00 1020.4
20141123042935 60 124 5.0 0.0 0.00 0.00 0.00 1020.4